Regional Weather Roundup
Issued by NWS

Home | Current Version | Previous Version | Text Only | Print | Product List | Glossary On
Versions: 1 2 3 4 5 6 7 8 9 10 11 12 13 14 15 16 17 18 19 20 21 22 23 24 25 26 27 28 29 30 31 32 33 34 35 36 37 38 39 40 41 42 43 44 45 46 47 48 49 50
000
ASUS44 KFWD 300301
RWRTX
NORTH TEXAS HOURLY WEATHER ROUNDUP
NATIONAL WEATHER SERVICE FORT WORTH TX
1000 PM CDT SUN MAR 29 2015

NOTE: "FAIR" INDICATES FEW OR NO CLOUDS BELOW 12,000 FEET WITH NO
SIGNIFICANT WEATHER AND/OR OBSTRUCTIONS TO VISIBILITY.

TXZ118-119-300400-
DALLAS/FORT WORTH METROPLEX

CITY           SKY/WX    TMP DP  RH WIND       PRES   REMARKS
DFW AIRPORT    MOCLDY    70  56  61 NE5       30.05R
DALLAS LOVE    FAIR      75  55  49 SE6       30.05R
FTW MEACHAM    MOCLDY    73  56  54 S9        30.04R
DAL-EXECUTIVE  PTCLDY    74  55  51 S7        30.05R
FTW-ALLIANCE   MOCLDY    75  54  47 NE6       30.05R
FTW-NAS-JRB    CLEAR     74  56  53 S12       30.08R
ARLINGTON      PTCLDY    75  53  46 S3        30.05R
MESQUITE       CLEAR     71  54  54 S6        30.06R
LANCASTER      PTCLDY    71  54  54 S5        30.06R
$$

TXZ091>094-102>105-117-120-121-131>134-300400-
NORTH CENTRAL TEXAS

CITY           SKY/WX    TMP DP  RH WIND       PRES   REMARKS
BRIDGEPORT     CLEAR     73  54  49 NE9       30.07R
DENTON         CLOUDY    77  54  44 SE14      30.05R
MCKINNEY       CLOUDY    70  59  68 SE3       30.07R
ROCKWALL       PTCLDY    69  55  62 CALM      30.07R
TERRELL        CLEAR     69  54  58 SE3       30.06R
WAXAHACHIE     PTCLDY    69  57  65 S7        30.06R
$$

TXZ083>090-098>101-113>116-127>130-139>142-154-155-300400-
WESTERN NORTH TEXAS

CITY           SKY/WX    TMP DP  RH WIND       PRES   REMARKS
WICHITA FALLS  CLEAR     62  45  53 N13       30.09R
ABILENE        FAIR      67  50  54 N7        30.12R
ABILENE-DYESS  CLEAR     66  48  53 N7        30.12R
MINERAL WELLS  CLEAR     74  51  44 N10       30.03R
COMANCHE       CLEAR     73  53  50 W6        30.05R
$$

TXZ143>147-156>162-174-175-300400-
CENTRAL TEXAS

CITY           SKY/WX    TMP DP  RH WIND       PRES   REMARKS
WACO           CLEAR     69  56  62 S14       30.04R
WACO-TSTC      CLEAR     72  55  56 S9        30.05R
WACO-MCGREGOR  CLEAR     72  50  46 S21       30.05R
CORSICANA      CLEAR     71  57  61 S13       30.06R
MEXIA          CLEAR     68  58  69 S9        30.05F
HEARNE         CLEAR     68  59  74 SE8       30.11R
TEMPLE         CLEAR     70  50  49 S20       30.05R
KILLEEN        CLEAR     70  55  59 S14       30.05R
KILLEEN-SKYLRK CLEAR     70  52  52 MISG      30.06R
FORT HOOD      CLEAR     71  54  54 SE13      30.05R
HAMILTON       CLEAR     71  53  52 S15       30.06R
$$

TXZ095>097-106>112-122>126-135>138-148>153-164>167-300400-
EAST TEXAS

CITY           SKY/WX    TMP DP  RH WIND       PRES   REMARKS
MINEOLA        CLEAR     73  52  46 CALM      30.08R
TYLER          CLEAR     73  52  47 S13       30.07R
LONGVIEW       CLEAR     65  57  75 S3        30.08R
PALESTINE      CLEAR     71  55  58 S7        30.10R
JACKSONVILLE   CLEAR     71  56  57 S6        30.11R
NACOGDOCHES    CLEAR     68  59  73 S9        30.11R
LUFKIN         CLEAR     71  61  70 S9        30.11R
$$

SUPPLEMENTAL OBSERVATIONS (CENTRAL)

CITY           SKY/WX    TMP DP  RH WIND       PRES   REMARKS
$$

SUPPLEMENTAL OBSERVATIONS (WEST)

CITY           SKY/WX    TMP DP  RH WIND       PRES   REMARKS
$$

SUPPLEMENTAL OBSERVATIONS (EAST)

CITY           SKY/WX    TMP DP  RH WIND       PRES   REMARKS
$$

SUPPLEMENTAL OBSERVATIONS ARE A COLLECTION OF AUTOMATED INSTRUMENTS
THAT ARE MAINTAINED BY A VARIETY OF FEDERAL AND STATE AGENCIES.
CERTAIN ELEMENTS...SUCH AS HUMIDITY VALUES AND SUSTAINED WIND
SPEEDS...MAY BE APPROXIMATED.




USA.gov is the U.S. government's official web portal to all federal, state and local government web resources and services.